Location: Burla
(50.9568°N, 10.4983°E)
Time: 14:49:46
(UTC+00:00)

Cosmos 2082 Rocket - Visible Passes

Search period start: 19 April 2026 00:00
Search period end: 29 April 2026 00:00
Orbit: 830 x 854 km, 71.0° (Epoch: 19 April)

Date Brightness Start Highest point End Pass type
(mag) Time Alt. Az. Time Alt. Az. Time Alt. Az.
19 Apr 2.3 01:43:29 38° WSW 01:45:38 65° WNW 01:51:21 10° NNE visible
19 Apr 4.0 03:26:50 10° WNW 03:30:51 19° NNW 03:34:54 10° NNE visible
19 Apr 3.6 23:47:00 25° ESE 23:47:07 25° ESE 23:51:40 10° NE visible
20 Apr 2.3 01:28:49 42° SW 01:30:42 67° WNW 01:36:27 10° NNE visible
20 Apr 4.0 03:11:48 10° W 03:15:54 20° NNW 03:20:01 10° NNE visible
20 Apr 3.7 23:32:19 24° E 23:32:19 24° E 23:36:42 10° NE visible
21 Apr 2.3 01:14:07 46° SW 01:15:47 70° WNW 01:21:32 10° NNE visible
21 Apr 4.0 02:56:46 10° W 03:00:56 20° NW 03:05:06 10° NNE visible
21 Apr 3.7 23:17:36 23° E 23:17:36 23° E 23:21:43 10° NE visible
22 Apr 2.2 00:59:24 50° SW 01:00:52 73° WNW 01:06:38 10° NNE visible
22 Apr 4.0 02:41:45 10° W 02:45:58 21° NW 02:50:13 10° NNE visible
22 Apr 3.8 23:02:51 22° E 23:02:51 22° E 23:06:45 10° NE visible
23 Apr 2.2 00:44:39 54° SW 00:45:57 75° WNW 00:51:43 10° NNE visible
23 Apr 4.0 02:26:44 10° W 02:31:01 21° NW 02:35:19 10° NNE visible
23 Apr 3.8 22:48:05 21° E 22:48:05 21° E 22:51:46 10° NE visible
24 Apr 2.2 00:29:53 58° SW 00:31:02 78° WNW 00:36:48 10° NNE visible
24 Apr 4.0 02:11:42 10° W 02:16:03 22° NW 02:20:26 10° NNE visible
24 Apr 3.9 22:33:16 20° E 22:33:16 20° E 22:36:46 10° NE visible
25 Apr 2.2 00:15:04 60° SW 00:16:07 81° WNW 00:21:54 10° NNE visible
25 Apr 4.0 01:56:52 11° W 02:01:06 22° NW 02:05:32 10° NNE visible
25 Apr 3.9 22:18:26 19° E 22:18:26 19° E 22:21:46 10° ENE visible
26 Apr 2.1 00:00:13 63° SW 00:01:13 84° WNW 00:06:59 10° NNE visible
26 Apr 4.0 01:42:01 11° W 01:46:09 23° NW 01:50:38 10° NNE visible
26 Apr 3.9 22:03:33 18° E 22:03:33 18° E 22:06:47 10° ENE visible
26 Apr 2.1 23:45:21 64° SW 23:46:18 87° WNW 23:52:04 10° NNE visible
27 Apr 4.0 01:27:08 12° W 01:31:12 24° NW 01:35:46 10° NNE visible
27 Apr 4.8 03:16:24 10° NNW 03:17:35 11° NNW 03:18:46 10° N visible
27 Apr 3.9 21:48:38 17° E 21:48:38 17° E 21:51:45 10° ENE visible
27 Apr 2.1 23:30:26 64° SSW 23:31:23 90° SSE 23:37:10 10° NNE visible
28 Apr 4.0 01:12:13 12° W 01:16:15 24° NW 01:20:52 10° NNE visible
28 Apr 4.8 03:01:17 10° NNW 03:02:36 11° NNW 03:03:54 10° N visible
28 Apr 3.9 21:33:41 17° E 21:33:41 17° E 21:36:45 10° ENE visible
28 Apr 2.1 23:15:29 63° SSW 23:16:29 87° ESE 23:22:15 10° NNE visible
